Regional Weather Roundup
Issued by NWS

Home | Current Version | Previous Version | Text Only | Print | Product List | Glossary On
Versions: 1 2 3 4 5 6 7 8 9 10 11 12 13 14 15 16 17 18 19 20 21 22 23 24 25 26 27 28 29 30 31 32 33 34 35 36 37 38 39 40 41 42 43 44 45 46 47 48 49 50
000
ASUS43 KDTX 191201
RWRMI
MICHIGAN HOURLY REGIONAL WEATHER ROUNDUP
NATIONAL WEATHER SERVICE DETROIT/PONTIAC MI
800 AM EDT TUE SEP 19 2017

NOTE: "FAIR" INDICATES FEW OR NO CLOUDS BELOW 12,000 FEET WITH NO
SIGNIFICANT WEATHER AND/OR OBSTRUCTION TO VISIBILITY.

MIZ047>049-052>055-059>063-066>070-074>076-081>083-191300-
SOUTHEAST LOWER MICHIGAN

CITY           SKY/WX    TMP DP  RH WIND       PRES   REMARKS
ADRIAN         CLOUDY    64  61  90 NE7       30.00R
6HR MIN TEMP:  63; 6HR MAX TEMP:  65;

ALMA           CLOUDY    56  53  91 N5        30.06R
ANN ARBOR      CLOUDY    64  61  90 NE6       30.00R
BAD AXE        PTCLDY    51  49  95 CALM      30.05R
CARO           PTCLDY    56  54  91 CALM      30.03R
DETROIT CITY   CLOUDY    63  61  93 NE3       30.00S
6HR MIN TEMP:  63; 6HR MAX TEMP:  64; 6HR PCP:  0.01;

DETROIT        CLOUDY    65  61  87 NE5       30.01R
6HR MIN TEMP:  64; 6HR MAX TEMP:  66; 6HR PCP: TRACE;

FLINT          CLOUDY    60  55  83 NE8       30.02S
6HR MIN TEMP:  56; 6HR MAX TEMP:  60;

HILLSDALE      LGT RAIN  63  61  94 E3        30.00R VSB 1
HOWELL         CLOUDY    59  55  87 CALM      30.01S
6HR MIN TEMP:  56; 6HR MAX TEMP:  59;


CITY           SKY/WX    TMP DP  RH WIND       PRES   REMARKS
JACKSON        CLOUDY    63  59  87 N5        30.00R FOG
6HR MIN TEMP:  63; 6HR MAX TEMP:  65;

LAMBERTVILLE   CLOUDY    66  64  91 CALM      29.98R FOG
6HR MIN TEMP:  65; 6HR MAX TEMP:  66;

LANSING        CLOUDY    60  52  74 CALM      30.03R
6HR MIN TEMP:  56; 6HR MAX TEMP:  61;

LAPEER         CLOUDY    60  57  88 E3        30.03R
6HR MIN TEMP:  54; 6HR MAX TEMP:  60;

MASON          CLOUDY    61  56  85 CALM      30.01S
MONROE         CLOUDY    65  63  91 NE5       29.98F
6HR MIN TEMP:  65; 6HR MAX TEMP:  65;

MT. CLEMENS    CLOUDY    64  64 100 NE6       30.00R
6HR MIN TEMP:  61; 6HR MAX TEMP:  64;

PONTIAC        CLOUDY    63  60  90 NE7       30.00S
6HR MIN TEMP:  60; 6HR MAX TEMP:  63; 6HR PCP: TRACE;

PORT HOPE        N/A     65  59  81 NE9       30.03S
6HR MIN TEMP:  63; 6HR MAX TEMP:  65;

PORT HURON     LGT RAIN  66  63  88 NE5       30.02R
TRI CITIES     CLOUDY    55  55 100 N6        30.06R
6HR MIN TEMP:  53; 6HR MAX TEMP:  57;

MIDLAND        CLOUDY    55  55 100 N3        30.05R
6HR MIN TEMP:  51; 6HR MAX TEMP:  55;

TROY           CLOUDY    64  61  89 NE6       30.03R
SAGINAW HB     PTCLDY    54  52  94 CALM      30.02F
$$
MIZ043>046-050>051-056>058-064>065-071>073-077>080-191300-
SOUTHWEST LOWER MICHIGAN

CITY           SKY/WX    TMP DP  RH WIND       PRES   REMARKS
BATTLE CREEK   LGT RAIN  64  63  96 E3        30.01S FOG
6HR MIN TEMP:  64; 6HR MAX TEMP:  67; 6HR PCP: TRACE;

BENTON HARBOR  LGT RAIN  67  64  90 E6        29.95S FOG
6HR MIN TEMP:  61; 6HR MAX TEMP:  67; 6HR PCP:  0.11;

BIG RAPIDS     CLOUDY    54  51  91 CALM      30.04S
6HR MIN TEMP:  54; 6HR MAX TEMP:  56;

COLDWATER      RAIN      65  65 100 CALM      30.00R
6HR MIN TEMP:  65; 6HR MAX TEMP:  67;

FREMONT        MOCLDY    59  52  76 E9        30.02R
HOLLAND        CLOUDY    64  61  90 E7        30.00R
6HR MIN TEMP:  61; 6HR MAX TEMP:  64;

GRAND RAPIDS   CLOUDY    61  56  83 E12       30.01R
6HR MIN TEMP:  60; 6HR MAX TEMP:  62;

IONIA          CLOUDY    59  53  79 N5        30.03R
6HR MIN TEMP:  57; 6HR MAX TEMP:  60;

KALAMAZOO      RAIN      66  63  90 SE3       29.99F FOG
6HR MIN TEMP:  64; 6HR MAX TEMP:  67; 6HR PCP:  0.14;

LUDINGTON      CLOUDY    57  53  86 E6        30.01R
6HR MIN TEMP:  56; 6HR MAX TEMP:  58;

MARSHALL       LGT RAIN  63  62  97 CALM      30.00S
6HR MIN TEMP:  63; 6HR MAX TEMP:  65; 6HR PCP:  0.02;

MOUNT PLEASANT CLOUDY    55  55  97 CALM      30.04F
6HR MIN TEMP:  54; 6HR MAX TEMP:  57;

MUSKEGON       CLOUDY    62  55  77 E8        30.00R
6HR MIN TEMP:  60; 6HR MAX TEMP:  65;

SOUTH HAVEN    LGT RAIN  66  65  96 E6        29.97S
$$
MIZ016>042-191300-
NORTHERN LOWER MICHIGAN

CITY           SKY/WX    TMP DP  RH WIND       PRES   REMARKS
ALPENA         MOCLDY    51  50  96 CALM      30.08S
6HR MIN TEMP:  45; 6HR MAX TEMP:  51;

BEAVER ISLAND  CLOUDY    55  53  94 CALM      30.07R
6HR MIN TEMP:  51; 6HR MAX TEMP:  58;

CADILLAC       MOCLDY    54  49  84 E7        30.06R
CHARLEVOIX     PTCLDY    57  53  86 SE5       30.09S
FRANKFORT      PTCLDY    58  55  88 E8        30.03S
GAYLORD        CLOUDY    53  49  86 CALM      30.08S
6HR MIN TEMP:  46; 6HR MAX TEMP:  53;

GRAYLING       MOCLDY    45  43  93 CALM      30.08S
6HR MIN TEMP:  42; 6HR MAX TEMP:  47;

HARBOR SPRINGS MOCLDY    53  51  95 E8        30.07F
HOUGHTON LAKE  CLOUDY    49  46  90 NE6       30.08R
6HR MIN TEMP:  45; 6HR MAX TEMP:  50;

MANISTEE       CLOUDY    55  53  93 E7        30.02S
OSCODA         PTCLDY    48  48  99 NW5       30.06R
6HR MIN TEMP:  46; 6HR MAX TEMP:  49;

PELLSTON       MOCLDY    48  47  96 CALM      30.08S
6HR MIN TEMP:  45; 6HR MAX TEMP:  52;

ROGERS CITY    PTCLDY    53  52  96 CALM      30.10R
TRAVERSE CITY  CLOUDY    54  50  86 CALM      30.04S
6HR MIN TEMP:  52; 6HR MAX TEMP:  58;

$$
MIZ007>008-015-191300-
EASTERN UPPER MICHIGAN

CITY           SKY/WX    TMP DP  RH WIND       PRES   REMARKS
KINROSS        CLOUDY    53  50  89 E6        30.10R
6HR MIN TEMP:  52; 6HR MAX TEMP:  56;

MACKINAC ISLAN CLOUDY    60  57  89 E10G16    30.08S
6HR MIN TEMP:  56; 6HR MAX TEMP:  60;

NEWBERRY       CLOUDY    52  51  97 E7        30.08S FOG
6HR MIN TEMP:  51; 6HR MAX TEMP:  53;

S. S. MARIE    CLOUDY    55  49  80 E3        30.10R
6HR MIN TEMP:  53; 6HR MAX TEMP:  58; 6HR PCP: TRACE;

MUNISING         N/A     57  50  77 CALM      30.06R
6HR MIN TEMP:  54; 6HR MAX TEMP:  58;

$$
MIZ004>006-011>014-085-191300-
CENTRAL UPPER MICHIGAN

CITY           SKY/WX    TMP DP  RH WIND       PRES   REMARKS
MANISTIQUE     CLOUDY    52  47  81 CALM      30.06S
6HR MIN TEMP:  52; 6HR MAX TEMP:  54;

ESCANABA       CLOUDY    58  55  90 E6        30.04S
6HR MIN TEMP:  56; 6HR MAX TEMP:  58; 6HR PCP: TRACE;

MENOMINEE      CLOUDY    63  59  87 E8        30.03R
6HR MIN TEMP:  57; 6HR MAX TEMP:  63; 6HR PCP: TRACE;

SAWYER-GWINN   CLOUDY    54  43  66 E3        30.07R
$$
MIZ001>003-009>011-084-191300-
WESTERN UPPER MICHIGAN

CITY           SKY/WX    TMP DP  RH WIND       PRES   REMARKS
IRON MOUNTAIN  CLOUDY    54  50  86 CALM      30.04R
6HR MIN TEMP:  50; 6HR MAX TEMP:  58;

HOUGHTON       CLOUDY    56  54  93 E8        30.04S
6HR MIN TEMP:  56; 6HR MAX TEMP:  57;

COPPER HARBOR    N/A     57  52  83 SW3       30.05R
6HR MIN TEMP:  56; 6HR MAX TEMP:  58;

IRONWOOD       CLOUDY    56  51  84 E8        30.01R
6HR MIN TEMP:  55; 6HR MAX TEMP:  57;

$$

ABBREVIATIONS USED IN REMARKS
   TC - TEMPERATURE IN CELSIUS
  WCI - WIND CHILL INDEX
   HX - HEAT INDEX
  VSB - VISIBILITY




USA.gov is the U.S. government's official web portal to all federal, state and local government web resources and services.